FENGYUN 1C DEB, 31253

Orbit data source: Space-Track

FENGYUN 1C DEB, 31253 is space debris in SSO originally from a launch on Mon, 10 May 1999 UTC launched from the Taiyaun Space Center, China (TSC). Fengyun 1C debris stems from the Chinese weather satellite Fengyun-1C, which was intentionally destroyed by a Chinese anti-satellite missile in 2007. This event dramatically increased the amount of space debris, with thousands of trackable fragments posing hazards to satellites and human spaceflight. The Fengyun 1C debris cloud has become a focal point in discussions about space sustainability and the need for international regulations to prevent the creation of new debris.

Loading next visibility...
Identifier
31253, 1999-025BMK
Orbit
SSO
Country
Flag of CNCN / PRC
Related business
Manufacturer
Unknown
Mission
Spacecraft
Bus & Motor
Unknown
Mass
Unknown
Launch date (UTC)
1999-05-10 (27 years ago)
Launch vehicle
Unknown
Launch site
Taiyaun Space Center, China (TSC)
Object type
Payload
Rocket body
Debris
Shape & HBR
Unknown shape, 0.1 m
Radar Cross Section
Small (<0.1 m²)

Expand to show TLE details & history
Last TLE update: 5 days ago

TLE from 5 days ago
0 FENGYUN 1C DEB
1 31253U 99025BMK 26139.90968316  .00000348  00000-0  17361-3 0  9998
2 31253  99.0540 209.6898 0288793  11.4225 349.3313 14.03801375712173
Epoch: 2026-05-19T21:49Z
TLE epoch observation values (Epoch: 2026-05-19T21:49:56.625Z)
Latitude
-0.00006°
Longitude
4.62705°
Altitude
677.716 km
Speed
7.624 km/s
True Right ascension
13h 58m 45s
True Declination
0° 00' 00"
Sunlit
Object was in full shadow at epoch
Visualization orbit readout
Latitude
Unknown
Longitude
Unknown
Altitude
Unknown
Speed
Unknown
Apparent Right ascension
Unknown
Apparent Declination
Unknown
Sunlit
N/A
Visualization observer readout
Local Sidereal Time
10:25:53
Azimuth
Unknown
Elevation
Unknown
Doppler factor
Unknown
Orbital elements
Apogee altitude
1,087.403 km
Perigee altitude
668.307 km
Semi-major axis
7,255.992 km
Eccentricity
0.02888
Inclination
99.054°
RAAN
209.6898°
Arg. of periapsis
11.4225°
True anomaly
348.69616°
Mean anomaly
349.3313°
Eccentric anomaly
349.01603°
Mean motion
3.51154 °/min
Orbital period
102.52 mins
BSTAR
0.00017361
Loading maneuver chart data...
Computing Atmospheric mass density...

Documentation

Showing up to 5 results
|